This is the latest recevied weather packets stored in our database for station/object KC3SOZ. If no packets are shown the sender has not sent any weather packets the latest 10 day(s).
| Time | Temp. | Humidity | Pressure | Rain* | Wind** | Luminosity | Snow |
|---|---|---|---|---|---|---|---|
| 1777747223 | 11.67° C | 49% | 1014.4 hPa | 0 mm | - | 335 W/m² | - |
| 1777746919 | 12.22° C | 51% | 1014.4 hPa | 0 mm | - | 412 W/m² | - |
| 1777746615 | 12.78° C | 48% | 1014.3 hPa | 0 mm | - | 433 W/m² | - |
| 1777746310 | 11.67° C | 56% | 1014.5 hPa | 0 mm | - | 465 W/m² | - |
| 1777746006 | 11.67° C | 55% | 1014.2 hPa | 0 mm | - | 446 W/m² | - |
| 1777745704 | 11.67° C | 50% | 1014.5 hPa | 0 mm | - | 357 W/m² | - |
| 1777745403 | 11.11° C | 52% | 1014.5 hPa | 0 mm | - | 370 W/m² | - |
| 1777745099 | 11.11° C | 54% | 1014.4 hPa | 0 mm | - | 406 W/m² | - |
| 1777744796 | 11.11° C | 52% | 1014.5 hPa | 0 mm | - | 324 W/m² | - |
| 1777744490 | 11.11° C | 51% | 1014.5 hPa | 0 mm | - | 291 W/m² | - |
| 1777744187 | 11.11° C | 51% | 1014.6 hPa | 0 mm | - | 327 W/m² | - |
| 1777743884 | 11.11° C | 51% | 1014.7 hPa | 0 mm | - | 299 W/m² | - |
| 1777743580 | 11.67° C | 54% | 1014.4 hPa | 0 mm | - | 344 W/m² | - |
| 1777743277 | 11.67° C | 53% | 1014.3 hPa | 0 mm | - | 340 W/m² | - |
| 1777742976 | 11.11° C | 58% | 1014.6 hPa | 0 mm | - | 1062 W/m² | - |
| 1777742672 | 10.56° C | 53% | 1014.7 hPa | 0 mm | - | 237 W/m² | - |
| 1777742369 | 10.56° C | 55% | 1014.7 hPa | 0 mm | - | 204 W/m² | - |
| 1777742065 | 10.56° C | 52% | 1014.5 hPa | 0 mm | - | 256 W/m² | - |
| 1777741763 | 11.11° C | 49% | 1014.5 hPa | 0 mm | - | 278 W/m² | - |
| 1777741458 | 10.56° C | 56% | 1014.5 hPa | 0 mm | - | 323 W/m² | - |
| 1777741155 | 10° C | 53% | 1014.6 hPa | 0 mm | - | 266 W/m² | - |
| 1777740852 | 10.56° C | 54% | 1014.5 hPa | 0 mm | - | 274 W/m² | - |
| 1777740549 | 10.56° C | 54% | 1014.8 hPa | 0 mm | - | 234 W/m² | - |
| 1777740246 | 10.56° C | 54% | 1014.7 hPa | 0 mm | - | 331 W/m² | - |
| 1777739942 | 11.11° C | 55% | 1015 hPa | 0 mm | - | 959 W/m² | - |
* Rain latest hour (hover to see other rain measurements)
** Current wind speed in m/s (hover to see current wind gust speed)